Year,Month,Day,Hour,Minute,Value (Times are PST for temperature in C)
2007,09,23,00,00,9.20
2007,09,23,00,01,9.20
2007,09,23,00,02,9.10
2007,09,23,00,03,9.10
2007,09,23,00,04,9.20
2007,09,23,00,05,9.20
2007,09,23,00,06,9.20
2007,09,23,00,07,9.10
2007,09,23,00,08,9.10
2007,09,23,00,09,9.10
2007,09,23,00,10,9.10
2007,09,23,00,11,9.10
2007,09,23,00,12,9.10
2007,09,23,00,13,9.10
2007,09,23,00,14,9.10
2007,09,23,00,15,9.10
2007,09,23,00,16,9.10
2007,09,23,03,02,8.50
2007,09,23,03,03,8.40
2007,09,23,03,04,8.40
2007,09,23,03,05,8.40
2007,09,23,03,06,8.40
2007,09,23,03,07,8.40
2007,09,23,03,08,8.40
2007,09,23,03,09,8.40
2007,09,23,03,10,8.40
2007,09,23,03,11,8.40
2007,09,23,03,12,8.40
2007,09,23,03,13,8.40
2007,09,23,03,14,8.40
2007,09,23,03,15,8.40
2007,09,23,03,16,8.40
2007,09,23,03,17,8.40
2007,09,23,03,18,8.40
2007,09,23,03,19,8.40
2007,09,23,03,20,8.40
2007,09,23,03,21,8.40
2007,09,23,03,22,8.40
2007,09,23,03,23,8.40
2007,09,23,03,24,8.40
2007,09,23,03,25,8.40
2007,09,23,03,26,8.40
2007,09,23,03,27,8.40
2007,09,23,03,28,8.40
2007,09,23,03,29,8.30
2007,09,23,03,30,8.30
2007,09,23,03,31,8.30
2007,09,23,03,32,8.30
2007,09,23,03,33,8.30
2007,09,23,03,34,8.30
2007,09,23,03,35,8.30
2007,09,23,03,36,8.30
2007,09,23,03,37,8.30
2007,09,23,03,38,8.30
2007,09,23,03,39,8.30
2007,09,23,03,40,8.30
2007,09,23,03,41,8.30
2007,09,23,03,42,8.30
2007,09,23,03,43,8.20
2007,09,23,03,44,8.20
2007,09,23,03,45,8.20
2007,09,23,03,46,8.20
2007,09,23,03,47,8.20
2007,09,23,03,48,8.20
2007,09,23,03,49,8.20
2007,09,23,03,50,8.20
2007,09,23,03,51,8.20
2007,09,23,03,52,8.20
2007,09,23,03,53,8.20
2007,09,23,03,54,8.20
2007,09,23,03,55,8.20
2007,09,23,03,56,8.20
2007,09,23,03,57,8.20
2007,09,23,03,58,8.20
2007,09,23,03,59,8.20
2007,09,23,04,00,8.20
2007,09,23,04,01,8.20
2007,09,23,04,02,8.20
2007,09,23,04,03,8.10
2007,09,23,04,04,8.10
2007,09,23,04,05,8.10
2007,09,23,04,06,8.10
2007,09,23,04,07,8.10
2007,09,23,04,08,8.10
2007,09,23,04,09,8.10
2007,09,23,04,10,8.00
2007,09,23,04,11,8.00
2007,09,23,04,12,8.00
2007,09,23,04,13,8.00
2007,09,23,04,14,8.00
2007,09,23,04,15,8.00
2007,09,23,04,16,8.00
2007,09,23,04,17,8.00
2007,09,23,04,18,8.00
2007,09,23,04,19,8.00
2007,09,23,04,20,8.00
2007,09,23,04,21,7.90
2007,09,23,04,22,7.90
2007,09,23,04,23,8.00
2007,09,23,04,24,8.00
2007,09,23,04,25,8.00
2007,09,23,04,26,8.00
2007,09,23,04,27,8.00
2007,09,23,04,28,8.00
2007,09,23,04,29,8.00
2007,09,23,04,30,8.00
2007,09,23,04,31,8.00
2007,09,23,04,32,8.00
2007,09,23,04,33,7.90
2007,09,23,04,34,7.90
2007,09,23,04,35,7.80
2007,09,23,04,36,7.80
2007,09,23,04,37,7.70
2007,09,23,04,38,7.70
2007,09,23,04,39,7.70
2007,09,23,04,40,7.60
2007,09,23,04,41,7.60
2007,09,23,04,42,7.60
2007,09,23,04,43,7.50
2007,09,23,04,44,7.50
2007,09,23,04,45,7.50
2007,09,23,04,46,7.50
2007,09,23,04,47,7.50
2007,09,23,04,48,7.50
2007,09,23,04,49,7.50
2007,09,23,04,50,7.50
2007,09,23,04,51,7.40
2007,09,23,04,52,7.40
2007,09,23,04,53,7.40
2007,09,23,04,54,7.40
2007,09,23,04,55,7.40
2007,09,23,04,56,7.40
2007,09,23,04,57,7.40
2007,09,23,04,58,7.40
2007,09,23,04,59,7.40
2007,09,23,05,00,7.40
2007,09,23,05,01,7.40
2007,09,23,05,02,7.40
2007,09,23,05,03,7.40
2007,09,23,05,04,7.30
2007,09,23,05,05,7.30
2007,09,23,05,06,7.30
2007,09,23,05,07,7.30
2007,09,23,05,08,7.30
2007,09,23,05,09,7.30
2007,09,23,05,10,7.30
2007,09,23,05,11,7.30
2007,09,23,05,12,7.30
2007,09,23,05,13,7.30
2007,09,23,05,14,7.30
2007,09,23,05,15,7.30
2007,09,23,05,16,7.20
2007,09,23,05,17,7.20
2007,09,23,05,18,7.20
2007,09,23,05,19,7.20
2007,09,23,05,20,7.20
2007,09,23,05,21,7.10
2007,09,23,05,22,7.10
2007,09,23,05,23,7.10
2007,09,23,05,24,7.10
2007,09,23,05,25,7.00
2007,09,23,05,26,7.00
2007,09,23,05,27,7.00
2007,09,23,05,28,6.90
2007,09,23,05,29,6.90
2007,09,23,05,30,6.90
2007,09,23,05,31,6.90
2007,09,23,05,32,6.90
2007,09,23,05,33,6.90
2007,09,23,05,34,6.80
2007,09,23,05,35,6.90
2007,09,23,05,36,6.90
2007,09,23,05,37,6.90
2007,09,23,05,38,6.90
2007,09,23,05,39,6.80
2007,09,23,05,40,6.80
2007,09,23,05,41,6.80
2007,09,23,05,42,6.80
2007,09,23,05,43,6.80
2007,09,23,05,44,6.80
2007,09,23,05,45,6.80
2007,09,23,05,46,6.80
2007,09,23,05,47,6.90
2007,09,23,05,48,6.90
2007,09,23,05,49,6.90
2007,09,23,05,50,6.90
2007,09,23,05,51,6.90
2007,09,23,05,52,6.90
2007,09,23,05,53,6.90
2007,09,23,05,54,6.90
2007,09,23,05,55,6.90
2007,09,23,05,56,6.90
2007,09,23,05,57,6.90
2007,09,23,05,58,7.00
2007,09,23,05,59,7.00
2007,09,23,06,00,7.00
2007,09,23,06,01,7.00
2007,09,23,06,02,7.00
2007,09,23,06,03,7.00
2007,09,23,06,04,6.90
2007,09,23,06,05,6.90
2007,09,23,06,06,6.90
2007,09,23,06,07,6.90
2007,09,23,06,08,6.80
2007,09,23,06,09,6.80
2007,09,23,06,10,6.80
2007,09,23,06,11,6.80
2007,09,23,06,12,6.80
2007,09,23,06,13,6.80
2007,09,23,06,14,6.80
2007,09,23,06,15,6.70
2007,09,23,06,16,6.70
2007,09,23,06,17,6.70
2007,09,23,06,18,6.70
2007,09,23,06,19,6.60
2007,09,23,06,20,6.60
2007,09,23,06,21,6.60
2007,09,23,06,22,6.60
2007,09,23,06,23,6.60
2007,09,23,06,24,6.60
2007,09,23,06,25,6.60
2007,09,23,06,26,6.60
2007,09,23,06,27,6.60
2007,09,23,06,28,6.60
2007,09,23,06,29,6.60
2007,09,23,06,30,6.60
2007,09,23,06,31,6.60
2007,09,23,06,32,6.60
2007,09,23,06,33,6.60
2007,09,23,06,34,6.60
2007,09,23,06,35,6.60
2007,09,23,06,36,6.60
2007,09,23,06,37,6.60
2007,09,23,06,38,6.60
2007,09,23,06,39,6.60
2007,09,23,06,40,6.60
2007,09,23,06,41,6.60
2007,09,23,06,42,6.60
2007,09,23,06,43,6.60
2007,09,23,06,44,6.60
2007,09,23,06,45,6.60
2007,09,23,06,46,6.60
2007,09,23,06,47,6.50
2007,09,23,06,48,6.40
2007,09,23,06,49,6.40
2007,09,23,06,50,6.40
2007,09,23,06,51,6.50
2007,09,23,06,52,6.60
2007,09,23,06,53,6.60
2007,09,23,06,54,6.60
2007,09,23,06,55,6.60
2007,09,23,06,56,6.60
2007,09,23,06,57,6.60
2007,09,23,06,58,6.60
2007,09,23,06,59,6.50
2007,09,23,07,00,6.40
2007,09,23,07,01,6.40
2007,09,23,07,02,6.40
2007,09,23,07,03,6.40
2007,09,23,07,04,6.40
2007,09,23,07,05,6.40
2007,09,23,07,06,6.40
2007,09,23,07,07,6.40
2007,09,23,07,08,6.40
2007,09,23,07,09,6.30
2007,09,23,07,10,6.30
2007,09,23,07,11,6.30
2007,09,23,07,12,6.20
2007,09,23,07,13,6.20
2007,09,23,07,14,6.20
2007,09,23,07,15,6.20
2007,09,23,07,16,6.20
2007,09,23,07,17,6.20
2007,09,23,07,18,6.20
2007,09,23,07,19,6.20
2007,09,23,07,20,6.20
2007,09,23,07,21,6.20
2007,09,23,07,22,6.20
2007,09,23,07,23,6.20
2007,09,23,07,24,6.30
2007,09,23,07,25,6.30
2007,09,23,07,26,6.40
2007,09,23,07,27,6.40
2007,09,23,07,28,6.40
2007,09,23,07,29,6.40
2007,09,23,07,30,6.40
2007,09,23,07,31,6.40
2007,09,23,07,32,6.40
2007,09,23,07,33,6.40
2007,09,23,07,34,6.40
2007,09,23,07,35,6.40
2007,09,23,07,36,6.40
2007,09,23,07,37,6.40
2007,09,23,07,38,6.40
2007,09,23,07,39,6.40
2007,09,23,07,40,6.40
2007,09,23,07,41,6.40
2007,09,23,07,42,6.40
2007,09,23,07,43,6.40
2007,09,23,07,44,6.40
2007,09,23,07,45,6.40
2007,09,23,07,46,6.40
2007,09,23,07,47,6.50
2007,09,23,07,48,6.60
2007,09,23,07,49,6.60
2007,09,23,07,50,6.60
2007,09,23,07,51,6.60
2007,09,23,07,52,6.60
2007,09,23,07,53,6.60
2007,09,23,07,54,6.60
2007,09,23,07,55,6.60
2007,09,23,07,56,6.60
2007,09,23,07,57,6.60
2007,09,23,07,58,6.50
2007,09,23,07,59,6.40
2007,09,23,08,00,6.40
2007,09,23,08,01,6.40
2007,09,23,08,02,6.40
2007,09,23,08,03,6.40
2007,09,23,08,04,6.40
2007,09,23,08,05,6.40
2007,09,23,08,06,6.40
2007,09,23,08,07,6.40
2007,09,23,08,08,6.40
2007,09,23,08,09,6.40
2007,09,23,08,10,6.40
2007,09,23,08,11,6.50
2007,09,23,08,12,6.60
2007,09,23,08,13,6.60
2007,09,23,08,14,6.60
2007,09,23,08,15,6.60
2007,09,23,08,16,6.70
2007,09,23,08,17,6.80
2007,09,23,08,18,6.80
2007,09,23,08,19,6.80
2007,09,23,08,20,6.90
2007,09,23,08,21,6.90
2007,09,23,08,22,7.00
2007,09,23,08,23,7.10
2007,09,23,08,24,7.20
2007,09,23,08,25,7.30
2007,09,23,08,26,7.30
2007,09,23,08,27,7.40
2007,09,23,08,28,7.50
2007,09,23,08,29,7.60
2007,09,23,08,30,7.60
2007,09,23,08,31,7.60
2007,09,23,08,32,7.80
2007,09,23,08,33,7.80
2007,09,23,08,34,7.90
2007,09,23,08,35,8.00
2007,09,23,08,36,8.00
2007,09,23,08,37,8.10
2007,09,23,08,38,8.20
2007,09,23,08,39,8.20
2007,09,23,08,40,8.30
2007,09,23,08,41,8.40
2007,09,23,08,42,8.50
2007,09,23,08,43,8.60
2007,09,23,08,44,8.60
2007,09,23,08,45,8.70
2007,09,23,08,46,8.80
2007,09,23,08,47,8.90
2007,09,23,08,48,8.90
2007,09,23,08,49,9.00
2007,09,23,08,50,9.10
2007,09,23,08,51,9.20
2007,09,23,08,52,9.20
2007,09,23,08,53,9.40
2007,09,23,08,54,9.40
2007,09,23,08,55,9.50
2007,09,23,08,56,9.60
2007,09,23,08,57,9.70
2007,09,23,08,58,9.80
2007,09,23,08,59,9.90
2007,09,23,09,00,10.00
2007,09,23,09,01,10.10
2007,09,23,09,02,10.20
2007,09,23,09,03,10.30
2007,09,23,09,04,10.40
2007,09,23,09,05,10.40
2007,09,23,09,06,10.40
2007,09,23,09,07,10.50
2007,09,23,09,08,10.60
2007,09,23,09,09,10.60
2007,09,23,09,10,10.70
2007,09,23,09,11,10.70
2007,09,23,09,12,10.80
2007,09,23,09,13,10.90
2007,09,23,09,14,10.90
2007,09,23,09,15,10.90
2007,09,23,09,16,11.20
2007,09,23,09,17,11.40
2007,09,23,09,18,11.50
2007,09,23,09,19,11.70
2007,09,23,09,20,11.80
2007,09,23,09,21,11.90
2007,09,23,09,22,12.00
2007,09,23,09,23,12.10
2007,09,23,09,24,12.20
2007,09,23,09,25,12.20
2007,09,23,09,26,12.20
2007,09,23,09,27,12.20
2007,09,23,09,28,12.10
2007,09,23,09,29,12.10
2007,09,23,09,30,12.10
2007,09,23,09,31,12.10
2007,09,23,09,32,12.10
2007,09,23,09,33,12.10
2007,09,23,09,34,12.20
2007,09,23,09,35,12.20
2007,09,23,09,36,12.30
2007,09,23,09,37,12.30
2007,09,23,09,38,12.30
2007,09,23,09,39,12.30
2007,09,23,09,40,12.30
2007,09,23,09,41,12.40
2007,09,23,09,42,12.50
2007,09,23,09,43,12.60
2007,09,23,09,44,12.70
2007,09,23,09,45,12.80
2007,09,23,09,46,12.80
2007,09,23,09,47,12.90
2007,09,23,09,48,13.00
2007,09,23,09,49,13.00
2007,09,23,09,50,12.90
2007,09,23,09,51,12.90
2007,09,23,09,52,12.80
2007,09,23,09,53,12.80
2007,09,23,09,54,12.80
2007,09,23,09,55,12.70
2007,09,23,09,56,12.70
2007,09,23,09,57,12.70
2007,09,23,09,58,12.60
2007,09,23,09,59,12.70
2007,09,23,10,00,12.70
2007,09,23,10,01,12.80
2007,09,23,10,02,12.80
2007,09,23,10,03,12.90
2007,09,23,10,04,12.90
2007,09,23,10,05,13.00
2007,09,23,10,06,13.10
2007,09,23,10,07,13.20
2007,09,23,10,08,13.30
2007,09,23,10,09,13.40
2007,09,23,10,10,13.40
2007,09,23,10,11,13.40
2007,09,23,10,12,13.40
2007,09,23,10,13,13.40
2007,09,23,10,14,13.40
2007,09,23,10,15,13.40
2007,09,23,10,16,13.40
2007,09,23,10,17,13.30
2007,09,23,10,18,13.20
2007,09,23,10,19,13.10
2007,09,23,10,20,13.10
2007,09,23,10,21,13.10
2007,09,23,10,22,13.00
2007,09,23,10,23,13.10
2007,09,23,10,24,13.20
2007,09,23,10,25,13.20
2007,09,23,10,26,13.10
2007,09,23,10,27,13.10
2007,09,23,10,28,13.10
2007,09,23,10,29,13.20
2007,09,23,10,30,13.20
2007,09,23,10,31,13.30
2007,09,23,10,32,13.30
2007,09,23,10,33,13.40
2007,09,23,10,34,13.40
2007,09,23,10,35,13.40
2007,09,23,10,36,13.40
2007,09,23,10,37,13.50
2007,09,23,10,38,13.60
2007,09,23,10,39,13.60
2007,09,23,10,40,13.60
2007,09,23,10,41,13.70
2007,09,23,10,42,13.70
2007,09,23,10,43,13.70
2007,09,23,10,44,13.80
2007,09,23,10,45,13.90
2007,09,23,10,46,13.90
2007,09,23,10,47,13.90
2007,09,23,10,48,14.00
2007,09,23,10,49,14.00
2007,09,23,10,50,14.10
2007,09,23,10,51,14.10
2007,09,23,10,52,14.10
2007,09,23,10,53,14.10
2007,09,23,10,54,14.10
2007,09,23,10,55,14.10
2007,09,23,10,56,14.00
2007,09,23,10,57,13.90
2007,09,23,10,58,13.90
2007,09,23,10,59,13.80
2007,09,23,11,00,13.70
2007,09,23,11,01,13.70
2007,09,23,11,02,13.70
2007,09,23,11,03,13.70
2007,09,23,11,04,13.80
2007,09,23,11,05,13.90
2007,09,23,11,06,13.90
2007,09,23,11,07,14.00
2007,09,23,11,08,14.10
2007,09,23,11,09,14.20
2007,09,23,11,10,14.10
2007,09,23,11,11,14.10
2007,09,23,11,12,14.20
2007,09,23,11,13,14.20
2007,09,23,11,14,14.10
2007,09,23,11,15,14.10
2007,09,23,11,16,14.10
2007,09,23,11,17,14.10
2007,09,23,11,18,14.10
2007,09,23,11,19,14.20
2007,09,23,11,20,14.20
2007,09,23,11,21,14.30
2007,09,23,11,22,14.30
2007,09,23,11,23,14.40
2007,09,23,11,24,14.40
2007,09,23,11,25,14.40
2007,09,23,11,26,14.50
2007,09,23,11,27,14.50
2007,09,23,11,28,14.50
2007,09,23,11,29,14.60
2007,09,23,11,30,14.50
2007,09,23,11,31,14.40
2007,09,23,11,32,14.40
2007,09,23,11,33,14.50
2007,09,23,11,34,14.50
2007,09,23,11,35,14.40
2007,09,23,11,36,14.50
2007,09,23,11,37,14.50
2007,09,23,11,38,14.50
2007,09,23,11,39,14.50
2007,09,23,11,40,14.50
2007,09,23,11,41,14.50
2007,09,23,11,42,14.50
2007,09,23,11,43,14.60
2007,09,23,11,44,14.70
2007,09,23,11,45,14.70
2007,09,23,11,46,14.70
2007,09,23,11,47,14.60
2007,09,23,11,48,14.50
2007,09,23,11,49,14.40
2007,09,23,11,50,14.30
2007,09,23,11,51,14.10
2007,09,23,11,52,14.00
2007,09,23,11,53,13.90
2007,09,23,11,54,13.80
2007,09,23,11,55,13.80
2007,09,23,11,56,13.80
2007,09,23,11,57,13.80
2007,09,23,11,58,13.80
2007,09,23,11,59,13.80
2007,09,23,12,00,13.80
2007,09,23,12,01,13.80
2007,09,23,12,02,13.80
2007,09,23,12,03,13.80
2007,09,23,12,04,13.70
2007,09,23,12,05,13.70
2007,09,23,12,06,13.70
2007,09,23,12,07,13.70
2007,09,23,12,08,13.70
2007,09,23,12,09,13.60
2007,09,23,12,10,13.50
2007,09,23,12,11,13.40
2007,09,23,12,12,13.50
2007,09,23,12,13,13.50
2007,09,23,12,14,13.40
2007,09,23,12,15,13.40
2007,09,23,12,16,13.40
2007,09,23,12,17,13.60
2007,09,23,12,18,13.60
2007,09,23,12,19,13.70
2007,09,23,12,20,13.80
2007,09,23,12,21,13.90
2007,09,23,12,22,14.00
2007,09,23,12,23,14.10
2007,09,23,12,24,14.20
2007,09,23,12,25,14.20
2007,09,23,12,26,14.20
2007,09,23,12,27,14.20
2007,09,23,12,28,14.20
2007,09,23,12,29,14.20
2007,09,23,12,30,14.10
2007,09,23,12,31,14.00
2007,09,23,12,32,14.00
2007,09,23,12,33,14.00
2007,09,23,12,34,14.10
2007,09,23,12,35,14.20
2007,09,23,12,36,14.20
2007,09,23,12,37,14.20
2007,09,23,12,38,14.20
2007,09,23,12,39,14.30
2007,09,23,12,40,14.30
2007,09,23,12,41,14.10
2007,09,23,12,42,14.00
2007,09,23,12,43,14.00
2007,09,23,12,44,14.10
2007,09,23,12,45,14.20
2007,09,23,12,46,14.20
2007,09,23,12,47,14.30
2007,09,23,12,48,14.20
2007,09,23,12,49,14.10
2007,09,23,12,50,14.10
2007,09,23,12,51,14.20
2007,09,23,12,52,14.20
2007,09,23,12,53,14.20
2007,09,23,12,54,14.20
2007,09,23,12,55,14.30
2007,09,23,12,56,14.30
2007,09,23,12,57,14.30
2007,09,23,12,58,14.20
2007,09,23,12,59,14.20
2007,09,23,13,00,14.20
2007,09,23,13,01,14.20
2007,09,23,13,02,14.10
2007,09,23,13,03,13.90
2007,09,23,13,04,13.70
2007,09,23,13,05,13.50
2007,09,23,13,06,13.50
2007,09,23,13,07,13.50
2007,09,23,13,08,13.60
2007,09,23,13,09,13.70
2007,09,23,13,10,13.70
2007,09,23,13,11,13.70
2007,09,23,13,12,13.70
2007,09,23,13,13,13.80
2007,09,23,13,14,13.90
2007,09,23,13,15,13.90
2007,09,23,13,16,14.00
2007,09,23,13,17,14.10
2007,09,23,13,18,14.10
2007,09,23,13,19,14.10
2007,09,23,13,20,14.20
2007,09,23,13,21,14.20
2007,09,23,13,22,14.20
2007,09,23,13,23,14.30
2007,09,23,13,24,14.30
2007,09,23,13,25,14.20
2007,09,23,13,26,14.20
2007,09,23,13,27,14.20
2007,09,23,13,28,14.30
2007,09,23,13,29,14.40
2007,09,23,13,30,14.60
2007,09,23,13,31,14.60
2007,09,23,13,32,14.60
2007,09,23,13,33,14.50
2007,09,23,13,34,14.50
2007,09,23,13,35,14.50
2007,09,23,13,36,14.50
2007,09,23,13,37,14.50
2007,09,23,13,38,14.40
2007,09,23,13,39,14.30
2007,09,23,13,40,14.10
2007,09,23,13,41,13.90
2007,09,23,13,42,13.80
2007,09,23,13,43,13.90
2007,09,23,13,44,13.90
2007,09,23,13,45,13.80
2007,09,23,13,46,13.90
2007,09,23,13,47,13.90
2007,09,23,13,48,14.10
2007,09,23,13,49,14.20
2007,09,23,13,50,14.40
2007,09,23,13,51,14.50
2007,09,23,13,52,14.50
2007,09,23,13,53,14.50
2007,09,23,13,54,14.50
2007,09,23,13,55,14.50
2007,09,23,13,56,14.50
2007,09,23,13,57,14.50
2007,09,23,13,58,14.30
2007,09,23,13,59,14.20
2007,09,23,14,00,14.30
2007,09,23,14,01,14.30
2007,09,23,14,02,14.40
2007,09,23,14,03,14.40
2007,09,23,14,04,14.40
2007,09,23,14,05,14.40
2007,09,23,14,06,14.40
2007,09,23,14,07,14.40
2007,09,23,14,08,14.40
2007,09,23,14,09,14.40
2007,09,23,14,10,14.40
2007,09,23,14,11,14.30
2007,09,23,14,12,14.40
2007,09,23,14,13,14.40
2007,09,23,14,14,14.50
2007,09,23,14,15,14.50
2007,09,23,14,16,14.50
2007,09,23,14,17,14.50
2007,09,23,14,18,14.40
2007,09,23,14,19,14.50
2007,09,23,14,20,14.50
2007,09,23,14,21,14.40
2007,09,23,14,22,14.30
2007,09,23,14,23,14.20
2007,09,23,14,24,14.20
2007,09,23,14,25,14.20
2007,09,23,14,26,14.20
2007,09,23,14,27,14.00
2007,09,23,14,28,13.90
2007,09,23,14,29,13.90
2007,09,23,14,30,13.90
2007,09,23,14,31,13.90
2007,09,23,14,32,14.00
2007,09,23,14,33,14.00
2007,09,23,14,34,14.00
2007,09,23,14,35,13.90
2007,09,23,14,36,13.80
2007,09,23,14,37,13.80
2007,09,23,14,38,13.80
2007,09,23,14,39,13.80
2007,09,23,14,40,13.80
2007,09,23,14,41,13.90
2007,09,23,14,42,13.90
2007,09,23,14,43,14.00
2007,09,23,14,44,14.00
2007,09,23,14,45,14.00
2007,09,23,14,46,14.00
2007,09,23,14,47,14.10
2007,09,23,14,48,14.00
2007,09,23,14,49,14.10
2007,09,23,14,50,14.10
2007,09,23,14,51,14.00
2007,09,23,14,52,14.00
2007,09,23,14,53,14.00
2007,09,23,14,54,14.10
2007,09,23,14,55,14.10
2007,09,23,14,56,14.20
2007,09,23,14,57,14.20
2007,09,23,14,58,14.20
2007,09,23,14,59,14.20
2007,09,23,15,00,14.20
2007,09,23,15,01,14.10
2007,09,23,15,02,14.20
2007,09,23,15,03,14.20
2007,09,23,15,04,14.20
2007,09,23,15,05,14.20
2007,09,23,15,06,14.20
2007,09,23,15,07,14.20
2007,09,23,15,08,14.20
2007,09,23,15,09,14.20
2007,09,23,15,10,14.30
2007,09,23,15,11,14.40
2007,09,23,15,12,14.40
2007,09,23,15,13,14.40
2007,09,23,15,14,14.40
2007,09,23,15,15,14.50
2007,09,23,15,16,14.60
2007,09,23,15,17,14.60
2007,09,23,15,18,14.50
2007,09,23,15,19,14.50
2007,09,23,15,20,14.50
2007,09,23,15,21,14.50
2007,09,23,15,22,14.40
2007,09,23,15,23,14.40
2007,09,23,15,24,14.40
2007,09,23,15,25,14.50
2007,09,23,15,26,14.50
2007,09,23,15,27,14.50
2007,09,23,15,28,14.40
2007,09,23,15,29,14.50
2007,09,23,15,30,14.50
2007,09,23,15,31,14.50
2007,09,23,15,32,14.50
2007,09,23,15,33,14.50
2007,09,23,15,34,14.60
2007,09,23,15,35,14.70
2007,09,23,15,36,14.70
2007,09,23,15,37,14.80
2007,09,23,15,38,14.70
2007,09,23,15,39,14.60
2007,09,23,15,40,14.60
2007,09,23,15,41,14.50
2007,09,23,15,42,14.30
2007,09,23,15,43,14.20
2007,09,23,15,44,14.30
2007,09,23,15,45,14.30
2007,09,23,15,46,14.30
2007,09,23,15,47,14.30
2007,09,23,15,48,14.10
2007,09,23,15,49,14.00
2007,09,23,15,50,13.90
2007,09,23,15,51,13.80
2007,09,23,15,52,13.70
2007,09,23,15,53,13.60
2007,09,23,15,54,13.60
2007,09,23,15,55,13.70
2007,09,23,15,56,13.70
2007,09,23,15,57,13.80
2007,09,23,15,58,13.90
2007,09,23,15,59,13.90
2007,09,23,16,00,13.90
2007,09,23,16,01,13.90
2007,09,23,16,02,13.90
2007,09,23,16,03,13.90
2007,09,23,16,04,13.90
2007,09,23,16,05,14.00
2007,09,23,16,06,14.00
2007,09,23,16,07,14.00
2007,09,23,16,08,14.00
2007,09,23,16,09,14.10
2007,09,23,16,10,14.20
2007,09,23,16,11,14.20
2007,09,23,16,12,14.20
2007,09,23,16,13,14.20
2007,09,23,16,14,14.20
2007,09,23,16,15,14.20
2007,09,23,16,16,14.30
2007,09,23,16,17,14.30
2007,09,23,16,18,14.40
2007,09,23,16,19,14.40
2007,09,23,16,20,14.40
2007,09,23,16,21,14.30
2007,09,23,16,22,14.30
2007,09,23,16,23,14.20
2007,09,23,16,24,14.10
2007,09,23,16,25,14.20
2007,09,23,16,26,14.20
2007,09,23,16,27,14.20
2007,09,23,16,28,14.30
2007,09,23,16,29,14.20
2007,09,23,16,30,14.20
2007,09,23,16,31,14.20
2007,09,23,16,32,14.20
2007,09,23,16,33,14.20
2007,09,23,16,34,14.30
2007,09,23,16,35,14.30
2007,09,23,16,36,14.30
2007,09,23,16,37,14.30
2007,09,23,16,38,14.30
2007,09,23,16,39,14.30
2007,09,23,16,40,14.40
2007,09,23,16,41,14.40
2007,09,23,16,42,14.50
2007,09,23,16,43,14.50
2007,09,23,16,44,14.50
2007,09,23,16,45,14.40
2007,09,23,16,46,14.40
2007,09,23,16,47,14.30
2007,09,23,16,48,14.40
2007,09,23,16,49,14.40
2007,09,23,16,50,14.40
2007,09,23,16,51,14.40
2007,09,23,16,52,14.40
2007,09,23,16,53,14.50
2007,09,23,16,54,14.50
2007,09,23,16,55,14.50
2007,09,23,16,56,14.60
2007,09,23,16,57,14.60
2007,09,23,16,58,14.60
2007,09,23,16,59,14.60
2007,09,23,17,00,14.60
2007,09,23,17,01,14.60
2007,09,23,17,02,14.60
2007,09,23,17,03,14.60
2007,09,23,17,04,14.60
2007,09,23,17,13,14.50
2007,09,23,17,14,14.30
2007,09,23,17,15,14.20
2007,09,23,17,16,14.20
2007,09,23,17,17,14.20
2007,09,23,17,18,14.20
2007,09,23,17,19,14.20
2007,09,23,17,20,14.20
2007,09,23,17,21,14.30
2007,09,23,17,23,14.40
2007,09,23,17,24,14.40
2007,09,23,17,25,14.40
2007,09,23,17,26,14.40
2007,09,23,17,27,14.40
2007,09,23,17,28,14.50
2007,09,23,17,29,14.50
2007,09,23,17,30,14.50
2007,09,23,17,31,14.50
2007,09,23,17,32,14.50
2007,09,23,17,33,14.50
2007,09,23,17,34,14.50
2007,09,23,17,35,14.50
2007,09,23,17,36,14.50
2007,09,23,17,37,14.50
2007,09,23,17,38,14.50
2007,09,23,17,39,14.50
2007,09,23,17,40,14.50
2007,09,23,17,41,14.50
2007,09,23,17,42,14.50
2007,09,23,17,43,14.50
2007,09,23,17,44,14.50
2007,09,23,17,45,14.50
2007,09,23,17,46,14.50
2007,09,23,17,47,14.40
2007,09,23,17,48,14.40
2007,09,23,17,49,14.40
2007,09,23,17,50,14.30
2007,09,23,17,51,14.40
2007,09,23,17,52,14.40
2007,09,23,17,53,14.40
2007,09,23,17,54,14.40
2007,09,23,17,55,14.40
2007,09,23,17,56,14.40
2007,09,23,17,57,14.40
2007,09,23,17,58,14.50
2007,09,23,17,59,14.50
2007,09,23,18,00,14.50
2007,09,23,18,01,14.50
2007,09,23,18,02,14.40
2007,09,23,18,03,14.40
2007,09,23,18,04,14.40
2007,09,23,18,05,14.40
2007,09,23,18,06,14.40
2007,09,23,18,07,14.40
2007,09,23,18,08,14.30
2007,09,23,18,09,14.30
2007,09,23,18,10,14.20
2007,09,23,18,11,14.20
2007,09,23,18,12,14.20
2007,09,23,18,13,14.20
2007,09,23,18,14,14.20
2007,09,23,18,15,14.20
2007,09,23,18,16,14.20
2007,09,23,18,17,14.20
2007,09,23,18,18,14.10
2007,09,23,18,19,14.10
2007,09,23,18,20,14.10
2007,09,23,18,21,14.10
2007,09,23,18,22,14.10
2007,09,23,18,23,14.10
2007,09,23,18,24,14.10
2007,09,23,18,25,14.10
2007,09,23,18,26,14.10
2007,09,23,18,27,14.10
2007,09,23,18,28,14.00
2007,09,23,18,29,14.00
2007,09,23,18,30,14.00
2007,09,23,18,31,14.00
2007,09,23,18,32,13.90
2007,09,23,18,33,13.90
2007,09,23,18,34,13.80
2007,09,23,18,35,13.80
2007,09,23,18,36,13.80
2007,09,23,18,37,13.70
2007,09,23,18,38,13.70
2007,09,23,18,39,13.60
2007,09,23,18,40,13.60
2007,09,23,18,41,13.60
2007,09,23,18,42,13.50
2007,09,23,18,43,13.50
2007,09,23,18,44,13.50
2007,09,23,18,45,13.40
2007,09,23,18,46,13.40
2007,09,23,18,47,13.30
2007,09,23,18,48,13.30
2007,09,23,18,49,13.30
2007,09,23,18,50,13.20
2007,09,23,18,51,13.20
2007,09,23,18,52,13.10
2007,09,23,18,53,13.10
2007,09,23,18,54,13.00
2007,09,23,18,55,13.00
2007,09,23,18,56,12.90
2007,09,23,18,57,12.90
2007,09,23,18,58,12.80
2007,09,23,18,59,12.80
2007,09,23,19,00,12.80
2007,09,23,19,01,12.80
2007,09,23,19,02,12.80
2007,09,23,19,03,12.70
2007,09,23,19,04,12.70
2007,09,23,19,05,12.70
2007,09,23,19,06,12.60
2007,09,23,19,07,12.60
2007,09,23,19,08,12.50
2007,09,23,19,09,12.50
2007,09,23,19,10,12.50
2007,09,23,19,11,12.50
2007,09,23,19,12,12.40
2007,09,23,19,13,12.40
2007,09,23,19,14,12.40
2007,09,23,19,15,12.30
2007,09,23,19,16,12.30
2007,09,23,19,17,12.30
2007,09,23,19,18,12.30
2007,09,23,19,19,12.30
2007,09,23,19,20,12.30
2007,09,23,19,21,12.30
2007,09,23,19,22,12.20
2007,09,23,19,23,12.20
2007,09,23,19,24,12.20
2007,09,23,19,25,12.20
2007,09,23,19,26,12.10
2007,09,23,19,27,12.10
2007,09,23,19,28,12.10
2007,09,23,19,29,12.10
2007,09,23,19,30,12.00
2007,09,23,19,31,12.00
2007,09,23,19,32,12.00
2007,09,23,19,33,12.00
2007,09,23,19,34,12.00
2007,09,23,19,35,11.90
2007,09,23,19,36,11.90
2007,09,23,19,37,11.90
2007,09,23,19,38,11.80
2007,09,23,19,39,11.80
2007,09,23,19,40,11.80
2007,09,23,19,41,11.80
2007,09,23,19,42,11.80
2007,09,23,19,43,11.80
2007,09,23,19,44,11.70
2007,09,23,19,45,11.70
2007,09,23,19,46,11.70
2007,09,23,19,47,11.70
2007,09,23,19,48,11.60
2007,09,23,19,49,11.60
2007,09,23,19,50,11.60
2007,09,23,19,51,11.60
2007,09,23,19,52,11.60
2007,09,23,19,53,11.50
2007,09,23,19,54,11.40
2007,09,23,19,55,11.40
2007,09,23,19,56,11.40
2007,09,23,19,57,11.40
2007,09,23,19,58,11.40
2007,09,23,19,59,11.40
2007,09,23,20,00,11.30
2007,09,23,20,01,11.30
2007,09,23,20,02,11.30
2007,09,23,20,03,11.30
2007,09,23,20,04,11.30
2007,09,23,20,05,11.30
2007,09,23,20,06,11.40
2007,09,23,20,07,11.40
2007,09,23,20,08,11.40
2007,09,23,20,09,11.40
2007,09,23,20,10,11.40
2007,09,23,20,11,11.40
2007,09,23,20,12,11.40
2007,09,23,20,13,11.40
2007,09,23,20,14,11.40
2007,09,23,20,15,11.40
2007,09,23,20,16,11.40
2007,09,23,20,17,11.40
2007,09,23,20,18,11.40
2007,09,23,20,19,11.40
2007,09,23,20,20,11.40
2007,09,23,20,21,11.40
2007,09,23,20,22,11.40
2007,09,23,20,23,11.40
2007,09,23,20,24,11.40
2007,09,23,20,25,11.40
2007,09,23,20,26,11.40
2007,09,23,20,27,11.40
2007,09,23,20,28,11.40
2007,09,23,20,29,11.40